Manhattan, KS

10:12 PM CDT on October 20, 2017 (GMT -0500)
Manhattan Regional

Weather History for KMHK - January, 2013

Change the Weather History Date:

Saturday, January 19, 2013

  Actual Average Record
Temperature  
Mean Temperature 46 °F 29 °F  
Max Temperature 66 °F 41 °F 66 °F (2013)
Min Temperature 26 °F 17 °F -7 °F (2008)
Degree Days  
Heating Degree Days 19 36  
Month to date heating degree days 614 699  
Since 1 July heating degree days 2535 2840  
Cooling Degree Days 0 0  
Month to date cooling degree days 0 0  
Year to date cooling degree days 0 0  
Moisture  
Dew Point 27 °F    
Average Humidity 51    
Maximum Humidity 82    
Minimum Humidity 20    
Precipitation  
Precipitation 0.00 in 0.02 in 0.19 in (2011)
Month to date precipitation 0.27 0.27  
Year to date precipitation 0.27 0.27  
Sea Level Pressure  
Sea Level Pressure 30.09 in    
Wind  
Wind Speed 6 mph (West)    
Max Wind Speed 17 mph    
Max Gust Speed 21 mph    
Visibility 10 miles    
Events      
T = Trace of Precipitation, MM = Missing Value Source: NWS Daily Summary

Daily Weather History Graph

Daily Weather History Graph

Search for Another Location

Airport or City:

Trip Planner

Search our weather history database for the weather conditions in past years. The results will help you decide how hot, cold, wet, or windy it might be!

Date:

Astronomy

Jan. 19, 2013 Rise Set
Actual Time 7:42 AM CST 5:32 PM CST
Civil Twilight 7:13 AM CST 6:02 PM CST
Nautical Twilight 6:40 AM CST 6:34 PM CST
Astronomical Twilight 6:08 AM CST 7:06 PM CST
Moon 11:59 AM CST (1/19) 1:18 AM CST (1/19)
Length of Visible Light 10h 48m
Length of Day
9h 50m
First Quarter, 57% of the Moon is Illuminated
Jan 19
First Quarter
Jan 26
Full
Feb 3
Last Quarter
Feb 10
New
Feb 17
First Quarter

Hourly Weather History & Observations

Time (CST) Temp. Windchill Dew Point Humidity Pressure Visibility Wind Dir Wind Speed Gust Speed Precip Events Conditions
12:52 AM 44.1 °F 37.4 °F 32.0 °F 63% 29.98 in 10.0 mi SW 13.8 mph - N/A   Clear
1:52 AM 44.1 °F 37.7 °F 32.0 °F 63% 29.99 in 10.0 mi SW 12.7 mph - N/A   Clear
2:52 AM 42.1 °F 35.7 °F 30.9 °F 65% 29.99 in 10.0 mi SW 11.5 mph - N/A   Clear
3:52 AM 39.0 °F - 30.0 °F 70% 29.97 in 10.0 mi Calm Calm - N/A   Clear
4:52 AM 39.0 °F 32.8 °F 30.9 °F 73% 29.96 in 10.0 mi SW 9.2 mph - N/A   Clear
5:52 AM 35.1 °F 28.6 °F 28.9 °F 78% 29.98 in 10.0 mi WSW 8.1 mph - N/A   Clear
6:52 AM 34.0 °F - 28.0 °F 79% 30.00 in 10.0 mi Calm Calm - N/A   Clear
7:52 AM 33.1 °F 27.7 °F 28.0 °F 82% 30.02 in 10.0 mi WSW 5.8 mph - N/A   Clear
8:52 AM 37.9 °F 33.5 °F 28.9 °F 70% 30.04 in 10.0 mi SW 5.8 mph - N/A   Clear
9:52 AM 45.0 °F 41.2 °F 27.0 °F 49% 30.08 in 10.0 mi West 6.9 mph 16.1 mph N/A   Clear
10:52 AM 50.0 °F - 27.0 °F 41% 30.10 in 10.0 mi WNW 6.9 mph - N/A   Clear
11:52 AM 55.0 °F - 26.1 °F 33% 30.09 in 10.0 mi Variable 5.8 mph - N/A   Clear
12:52 PM 60.1 °F - 26.1 °F 27% 30.06 in 10.0 mi NNW 5.8 mph - N/A   Clear
1:52 PM 63.0 °F - 28.0 °F 27% 30.05 in 10.0 mi WNW 8.1 mph - N/A   Clear
2:52 PM 64.9 °F - 23.0 °F 20% 30.05 in 10.0 mi NNW 9.2 mph 17.3 mph N/A   Clear
3:52 PM 64.0 °F - 23.0 °F 21% 30.08 in 10.0 mi NNW 10.4 mph 19.6 mph N/A   Clear
4:52 PM 60.1 °F - 26.1 °F 27% 30.12 in 10.0 mi NNW 6.9 mph - N/A   Clear
5:52 PM 51.1 °F - 25.0 °F 36% 30.15 in 10.0 mi Calm Calm - N/A   Clear
6:52 PM 43.0 °F - 26.1 °F 51% 30.18 in 10.0 mi Calm Calm - N/A   Clear
7:52 PM 39.0 °F 36.8 °F 26.1 °F 60% 30.21 in 10.0 mi SW 3.5 mph - N/A   Clear
8:52 PM 36.0 °F - 26.1 °F 67% 30.24 in 10.0 mi Calm Calm - N/A   Clear
9:52 PM 33.1 °F - 25.0 °F 72% 30.25 in 10.0 mi Calm Calm - N/A   Clear
10:52 PM 30.9 °F 27.5 °F 24.1 °F 76% 30.29 in 10.0 mi NE 3.5 mph - N/A   Clear
11:52 PM 36.0 °F - 27.0 °F 70% 30.29 in 10.0 mi Calm Calm - N/A   Clear